Zamboanga, Philippines

8:03 AM +08 on January 17, 2018 (GMT +0800)
Zamboanga International

Weather History for RPMZ - October, 2012

Change the Weather History Date:

Monday, October 8, 2012

  Actual Average Record
Temperature  
Mean Temperature 82 °F -  
Max Temperature 90 °F 89 °F - ()
Min Temperature 74 °F 74 °F - ()
Cooling Degree Days 17    
Growing Degree Days 32 (Base 50)    
Moisture  
Dew Point 75 °F    
Average Humidity 77    
Maximum Humidity 89    
Minimum Humidity 61    
Precipitation  
Precipitation 0.16 in 0.19 in - ()
Sea Level Pressure  
Sea Level Pressure 29.82 in    
Wind  
Wind Speed 5 mph ()    
Max Wind Speed 18 mph    
Max Gust Speed -    
Visibility 6.0 miles    
Events Rain    
T = Trace of Precipitation, MM = Missing Value Source: Averaged Metar Reports

Daily Weather History Graph

Daily Weather History Graph

Search for Another Location

Airport or City:

Trip Planner

Search our weather history database for the weather conditions in past years. The results will help you decide how hot, cold, wet, or windy it might be!

Date:

Astronomy

Oct. 08, 2012 Rise Set
Actual Time 5:38 AM +08 5:39 PM +08
Civil Twilight 5:17 AM +08 6:00 PM +08
Nautical Twilight 4:53 AM +08 6:24 PM +08
Astronomical Twilight 4:29 AM +08 6:49 PM +08
Moon 11:55 PM +08 (10/8) 11:49 AM +08 (10/8)
Length of Visible Light 12h 42m
Length of Day
12h 00m
Waning Gibbous, 51% of the Moon is Illuminated
Oct 8
Waning Gibbous
Oct 8
Last Quarter
Oct 15
New
Oct 22
First Quarter
Oct 30
Full

Hourly Weather History & Observations

Time (+08) Temp. Heat Index Dew Point Humidity Pressure Visibility Wind Dir Wind Speed Gust Speed Precip Events Conditions
2:00 AM 79 °F - 74 °F 79% 29.81 in 6 mi Calm Calm - -   Partly Cloudy
5:00 AM 75 °F - 72 °F 89% 29.82 in 6 mi Calm Calm - -   Haze
5:00 AM 75.2 °F - 71.6 °F 89% 29.83 in 6.2 mi Calm Calm - N/A   Mostly Cloudy
6:00 AM 75.2 °F - 71.6 °F 89% 29.83 in 6.2 mi Calm Calm - N/A   Scattered Clouds
7:00 AM 77.0 °F - 73.4 °F 89% 29.86 in 6.2 mi Calm Calm - N/A   Partly Cloudy
8:00 AM 83 °F - 75 °F 72% 29.86 in 6 mi West 6.7 mph - -   Haze
8:00 AM 84.2 °F 92.3 °F 75.2 °F 74% 29.86 in 6.2 mi West 6.9 mph - N/A   Partly Cloudy
9:00 AM 82.4 °F 89.5 °F 75.2 °F 79% 29.89 in 6.2 mi West 11.5 mph - N/A   Mostly Cloudy
10:00 AM 86.0 °F 96.9 °F 77.0 °F 74% 29.83 in 6.2 mi West 11.5 mph - N/A   Partly Cloudy
11:00 AM 88 °F - 79 °F 68% 29.83 in 6 mi WNW 11.2 mph - -   Haze
11:00 AM 87.8 °F 102.5 °F 78.8 °F 75% 29.83 in 6.2 mi WNW 11.5 mph - N/A   Scattered Clouds
12:00 PM 87.8 °F 99.7 °F 77.0 °F 70% 29.83 in 6.2 mi WSW 11.5 mph - N/A   Scattered Clouds
1:00 PM 87.8 °F 99.7 °F 77.0 °F 70% 29.80 in 6.2 mi SW 13.8 mph - N/A   Partly Cloudy
2:00 PM 89 °F - 77 °F 61% 29.76 in 6 mi West 13.4 mph - -   Haze
2:00 PM 87.8 °F 99.7 °F 77.0 °F 70% 29.77 in 6.2 mi West 13.8 mph - N/A   Partly Cloudy
3:00 PM 87.8 °F 99.7 °F 77.0 °F 70% 29.77 in 6.2 mi West 9.2 mph - N/A   Partly Cloudy
4:00 PM 87.8 °F 99.7 °F 77.0 °F 70% 29.77 in 6.2 mi West 4.6 mph - N/A   Partly Cloudy
5:00 PM 86 °F - 75 °F 63% 29.79 in 6 mi West 6.7 mph - -   Haze
5:00 PM 86.0 °F 95.1 °F 75.2 °F 70% 29.80 in 6.2 mi West 6.9 mph - N/A   Partly Cloudy
6:00 PM 78.8 °F - 75.2 °F 89% 29.80 in 6.2 mi West 2.3 mph - N/A   Mostly Cloudy
8:00 PM 79 °F - 73 °F 78% 29.83 in 6 mi West 17.9 mph - - Rain Heavy Rain Showers
8:00 PM 78.8 °F - 73.4 °F 83% 29.86 in 6.2 mi West 18.4 mph - N/A   Overcast
11:00 PM 79 °F - 76 °F 87% 29.84 in 5 mi West 4.5 mph - - Rain Light Rain
11:00 PM 78.8 °F - 75.2 °F 89% 29.86 in 5.0 mi West 4.6 mph - N/A Rain Light Rain